Location: Baumgarten
(49.0970°N, 12.7493°E)
Time: 01:08:56
(UTC+00:00)

ATLAS 5 CENTAUR R/B - Pass Details

Date: 05 July 2020
Orbit: 534 x 1124 km, 63.4° (Epoch: 06 August)

Event Time Altitude Azimuth Distance (km) Brightness Sun altitude
Rises 21:06:03 0° 237° (WSW) 2,729 4.8 -12.8°
Reaches altitude 10° 21:08:12 10° 243° (WSW) 1,879 4.1 -13.0°
Maximum altitude 21:12:17 50° 320° (NW) 793 2.6 -13.3°
Drops below altitude 10° 21:16:59 10° 36° (NE) 2,153 4.7 -13.7°
Sets 21:19:35 0° 42° (NE) 3,174 5.5 -13.8°
